"Pseudo-MPEC" for P11JHdt

Created 2023 Sep 21 16:22:18 UT using Find_Orb

Click here for an explanation of pseudo-MPECs

 
 Astrometry: 
     P11JHdt* C2023 09 16RUrnB`kx7;tuAstrometrybOs/)Gbfx[0,ygG`58X-,GwR_mLZU!F51
     P11JHdt  C2023 09 16-_TrGtq\^W5redacted;K$uNmg`M:H%larru't(yY6qZdBqH,MX\F51
     P11JHdt  C2023 09 16!L#;QUNV!iNtd/nF.'\%;FfHMvZcQ`fmg=Hos$_!xI0FJ',xB-c/F51
     P11JHdt 3C2023 09 17V6+jyclick7Qe*),3V0LX.PB.a5,_2m_u#oeb_dy6)]TfjBCTnU=T14
     P11JHdt 3C2023 09 17DwKx8a+QMR6/_gLEQ%[here4cj!-fxa4S$3**1CEptrIet2Ja^IlT14
     P11JHdt 3C2023 09 17+'O[h;YO)2.qlNn7DhcG-]42xL[Dj@$qo`_d?in,Qd#C8qZ79w8!T14
     P11JHdt 3C2023 09 17ZL32yH0iC4;ltTWnw%Ni#K\N_Mg\eBp8/(kX84!'Om!^$o[]Id'LT14
     P11JHdt 3C2023 09 185=TujvWUNGN0l`#'a*0._HgU*$XH__]92l5DTL#\6JB9+]w;E]dfT14
     P11JHdt 3C2023 09 18lHkJJ*/a-ItS8r/Fxg(47$(Ba%7abUMT#r%M#h507c=P5Mv3:Y!QT14
     P11JHdt 3C2023 09 18])Mycd`K@3Zw`9%c'nMs1D#Fqy3e24pprCo[bU`(BtY(3^Eo,Lh=T14
     P11JHdt 3C2023 09 18qk=hDPTW?JMkHvL0+fl'aKdtd/ip61h-+OG6]XUb+F0[Lt@lfGSkT14
     P11JHdt KC2023 09 201(/uK1]H_SG`i+xG#D18J+X=Kpp7R2$`wa.;a=;+3)I7NZOR?.ojH21
     P11JHdt KC2023 09 20h@:Yr@FvC749lPV-[X@d'1l;;EZ#n$kfor4Ja_p7?:O.Su^c\?AVH21
     P11JHdt KC2023 09 20]hP=)Ow,CUQXsU?20R@_:M4xjpq1M.3;^Px3'^1\5explanationH21

Station data:
(F51) Pan-STARRS 1, Haleakala  (N20.707234 W156.255910)  US/Hawaii.
   Observers J. Bulger, T. Lowe, A. Schultz, M. Willman. Measurers K.
   Chambers, S. Chastel, T. de Boer, L. Denneau, J. Fairlamb, H. Flewelling,
   M. Huber, C.-C. Lin, E. Magnier, Y. Ramanjooloo, R. Wainscoat, R. Weryk.
   1.8-m Ritchey-Chrétien + CCD.
(H21) Astronomical Research Observatory, Westfield  (N39.483054 W87.968270)
   US/Illinois.  Observer R. Holmes. Measurers S. Foglia, L. Buzzi, T.
   Linder, R. Holmes. 0.76-m f/3.0 astrograph + CCD0.81-m f/4.0 astrograph +
   CCD0.61-m f/4.5 astrograph + CCD0.40-m f/5.32 astrograph + CCD.
(T14) Mauna Kea-UH/Tholen NEO Follow-Up (CFHT)  (N19.825252 W155.468876)
   US/Hawaii.  Observer R. Weryk. 3.6-m Canada-France-Hawaii Telescope.

Orbital elements:  P11JHdt
   Perihelion 2023 Sep 28.89415 +/- 0.0868 TT = 21:27:34 (JD 2460216.39415)
Epoch 2023 Sep 20.0 TT = JDT 2460207.5   Earth MOID: 0.2373   Ma: 0.0398
M 357.23751680 +/- 0.022            (J2000 ecliptic)             AutoNEOCP
n   0.31059552 +/- 0.0012           Peri.  127.99388 +/- 0.15
a   2.15943059 +/- 0.00556          Node   232.38581 +/- 0.08
e   0.4289582 +/- 0.00127           Incl.    3.90273 +/- 0.008
P   3.17                   H 23.92  G  0.15   U  8.2
q 1.23312492 +/- 0.000481    Q 3.08573627 +/- 0.0107
From 14 observations 2023 Sept. 16-20; mean residual 0".19
Residuals in arcseconds: 
230916 F51  .03-  .17+    230917 T14  .00   .00     230918 T14  .01+  .08-    
230916 F51  .08-  .08+    230917 T14  .00   .00     230920 H21  .25+  .47+    
230916 F51  .06+  .09-    230918 T14  .02-  .02-    230920 H21  .06+  .64+    
230917 T14  .01+  .00     230918 T14  .04-  .02-    230920 H21  .08-  .50+    
230917 T14  .03+  .01+    230918 T14  .01+  .05-    

Ephemerides (geocentric):
Date (UTC) HH   RA             Dec           delta  r     elong  mag " sig PA
---- --------  ------------   ------------  ------ ------ -----  --- --------
2023 09 21 16  22 13 51.326   +06 44 25.42  .25152 1.2353 154.2 22.4 .159 102
2023 09 21 17  22 13 55.392   +06 44 20.32  .25153 1.2353 154.1 22.4 .161 102
2023 09 21 18  22 13 59.463   +06 44 15.20  .25154 1.2353 154.1 22.4 .162 103
2023 09 21 19  22 14 03.539   +06 44 10.06  .25155 1.2352 154.1 22.4 .164 103
2023 09 21 20  22 14 07.621   +06 44 04.89  .25156 1.2352 154.1 22.4 .165 103
2023 09 21 21  22 14 11.708   +06 43 59.70  .25157 1.2352 154.1 22.4 .166 103
2023 09 21 22  22 14 15.800   +06 43 54.48  .25158 1.2352 154.1 22.4 .168 104
2023 09 21 23  22 14 19.897   +06 43 49.24  .25159 1.2351 154.1 22.4 .169 104
2023 09 22 00  22 14 24.000   +06 43 43.98  .25160 1.2351 154.0 22.4 .170 104
2023 09 22 01  22 14 28.108   +06 43 38.69  .25161 1.2351 154.0 22.4 .172 105
2023 09 22 02  22 14 32.221   +06 43 33.38  .25162 1.2351 154.0 22.4 .173 105
2023 09 22 03  22 14 36.339   +06 43 28.05  .25164 1.2350 154.0 22.4 .174 105
2023 09 22 04  22 14 40.463   +06 43 22.70  .25165 1.2350 154.0 22.4 .175 106
2023 09 22 05  22 14 44.592   +06 43 17.32  .25166 1.2350 154.0 22.4 .177 106
2023 09 22 06  22 14 48.725   +06 43 11.92  .25167 1.2350 154.0 22.4 .178 106
2023 09 22 07  22 14 52.865   +06 43 06.49  .25168 1.2349 153.9 22.4 .179 106
2023 09 22 08  22 14 57.009   +06 43 01.05  .25170 1.2349 153.9 22.4 .181 107
2023 09 22 09  22 15 01.159   +06 42 55.58  .25171 1.2349 153.9 22.4 .182 107
2023 09 22 10  22 15 05.313   +06 42 50.09  .25172 1.2349 153.9 22.4 .183 107
2023 09 22 11  22 15 09.473   +06 42 44.57  .25173 1.2349 153.9 22.4 .184 108
2023 09 22 12  22 15 13.639   +06 42 39.04  .25175 1.2348 153.9 22.4 .186 108
2023 09 22 13  22 15 17.809   +06 42 33.48  .25176 1.2348 153.9 22.4 .187 108
2023 09 22 14  22 15 21.985   +06 42 27.90  .25177 1.2348 153.8 22.4 .188 108
2023 09 22 15  22 15 26.166   +06 42 22.30  .25179 1.2348 153.8 22.4 .189 109
2023 09 22 16  22 15 30.352   +06 42 16.67  .25180 1.2347 153.8 22.4 .190 109
2023 09 22 17  22 15 34.543   +06 42 11.02  .25181 1.2347 153.8 22.4 .192 109
2023 09 22 18  22 15 38.739   +06 42 05.36  .25183 1.2347 153.8 22.4 .193 110
2023 09 22 19  22 15 42.941   +06 41 59.66  .25184 1.2347 153.8 22.4 .194 110
2023 09 22 20  22 15 47.148   +06 41 53.95  .25186 1.2347 153.8 22.4 .195 110
2023 09 22 21  22 15 51.359   +06 41 48.22  .25187 1.2346 153.7 22.4 .196 110
2023 09 22 22  22 15 55.577   +06 41 42.46  .25188 1.2346 153.7 22.4 .197 111
2023 09 22 23  22 15 59.799   +06 41 36.68  .25190 1.2346 153.7 22.4 .199 111
2023 09 23 00  22 16 04.026   +06 41 30.89  .25191 1.2346 153.7 22.4 .200 111
2023 09 23 01  22 16 08.259   +06 41 25.06  .25193 1.2346 153.7 22.4 .201 112
2023 09 23 02  22 16 12.497   +06 41 19.22  .25194 1.2345 153.7 22.4 .202 112
2023 09 23 03  22 16 16.740   +06 41 13.36  .25196 1.2345 153.7 22.4 .203 112
2023 09 23 04  22 16 20.988   +06 41 07.48  .25198 1.2345 153.6 22.4 .204 112
2023 09 23 05  22 16 25.241   +06 41 01.57  .25199 1.2345 153.6 22.4 .205 113
2023 09 23 06  22 16 29.499   +06 40 55.64  .25201 1.2345 153.6 22.4 .206 113
2023 09 23 07  22 16 33.763   +06 40 49.70  .25202 1.2344 153.6 22.4 .207 113
2023 09 23 08  22 16 38.031   +06 40 43.73  .25204 1.2344 153.6 22.4 .208 114
2023 09 23 09  22 16 42.305   +06 40 37.74  .25206 1.2344 153.6 22.4 .209 114
2023 09 23 10  22 16 46.584   +06 40 31.73  .25207 1.2344 153.6 22.4 .210 114
2023 09 23 11  22 16 50.868   +06 40 25.70  .25209 1.2344 153.5 22.4 .211 114
2023 09 23 12  22 16 55.157   +06 40 19.65  .25211 1.2343 153.5 22.4 .212 115
2023 09 23 13  22 16 59.452   +06 40 13.57  .25212 1.2343 153.5 22.4 .213 115
2023 09 23 14  22 17 03.751   +06 40 07.48  .25214 1.2343 153.5 22.4 .214 115
2023 09 23 15  22 17 08.056   +06 40 01.37  .25216 1.2343 153.5 22.4 .215 116